User: anonymous   Login
Location: Juzet
(42.9779°N, 0.7597°E)
Time: 05:19:12
(UTC+00:00)
Language:

SeaSat 1 - Orbit

View from above orbital plane
View from above orbital plane
View from above satellite
View from above satellite

Ground track
Ground track

The orbit data is extracted from the following two-line orbital elements,

1 10967U 78064A   20273.32481497 -.00000049 +00000-0 +25917-4 0  9992
2 10967 108.0079 288.0478 0003003 264.5951 095.4851 14.43837254219583
Epoch (UTC): 29 September 2020 07:47:44
Eccentricity: 0.0003003
inclination: 108.0079°
perigee height: 744 km
apogee height: 748 km
right ascension of ascending node: 288.0478°
argument of perigee: 264.5951°
revolutions per day: 14.43837254
mean anomaly at epoch: 95.4851°
orbit number at epoch: 21958

The dashed part of the orbit path shows where the satellite is in the earth's shadow,  

DLR